Volver al catálogo

CZ-6A DEB

ActivoPO
NORAD 60714·DEBRIS·🇨🇳 China

Lanzado Aug 6, 2024 desde Taiyuan Satellite Launch Center

Loading…

Próximos Pases (próximas 24 horas)

TLE

ActualizadoSource: Space-Track

Época: Sep 14, 2026, 06:53 UTC

1 60714U 24140DT  26257.28706165  .00001142  00000-0  26352-3 0  9995
2 60714  89.0368 264.0191 0105423 346.9751  12.8737 14.51245965110616

Sigue CZ-6A DEB en tiempo real con AllMySat

Download on the App Store